493P/LONEOS (2007)

Japanese version
Home page
Updated on October 3, 2024

---------------------------------------------------------------------

* Profile

Designation 493P/2005 SB216
Discovery Date September 30, 2005
Magnitude 19.1 mag
Discoverer Lowell Observatory Near-Earth Object Search

* Pictures

* Orbital Elements

The following orbital elements are taken from MPC 61994:

Epoch 2007 Mar. 1.0 TT = JDT 2454160.5
T 2007 Feb. 11.3901 TT                                  MPC
q   3.818343             (2000.0)            P               Q
n   0.0519331      Peri.   83.5777      +0.0849110      -0.9963150
a   7.114968       Node     1.6990      +0.6735493      +0.0484415
e   0.463337       Incl.   24.0981      +0.7342489      +0.0707803
P  19.0
From 317 observations 2005 Sept. 23-2008 Feb. 13, mean residual 0".7.

* Finding Charts

* Magnitudes Graph

        m1 = 8.5 + 5 log d + 10.0 log r

---------------------------------------------------------------------

The orbital elements are published at the MPC Ephemerides and Orbital Elements.
The charts are made with StellaNavigator Ver.2.0 for Windows (AstroArts / ASCII).
The magnitudes graphs are made with Comet for Windows.

---------------------------------------------------------------------

Copyright(C) Seiichi Yoshida (comet@aerith.net). All rights reserved.